GW5164 Weather Reports


time (UTC)temp
C
wind
direction
speed
KPH
gust
KPH
rain 1hr
cm
rain 24hr
cm
rain mn
cm
humidity
%
barometer
mb
20260504193052 25 157 4.8 16.1 0.00 0.00 0.00 32 1014.0
20260504191558 23 167 11.3 22.5 0.00 0.00 0.00 34 1014.2
20260504190056 24 277 6.4 19.3 0.00 0.00 0.00 34 1014.4
20260504184559 24 124 4.8 16.1 0.00 0.00 0.00 36 1014.5
20260504183103 24 198 8.0 16.1 0.00 0.00 0.00 34 1014.6
20260504181553 23 129 11.3 17.7 0.00 0.00 0.00 36 1014.9
20260504180113 24 269 4.8 11.3 0.00 0.00 0.00 35 1015.0
20260504174556 23 205 4.8 17.7 0.00 0.00 0.00 37 1015.2
20260504173107 22 159 11.3 22.5 0.00 0.00 0.00 38 1015.2
20260504171605 23 132 6.4 14.5 0.00 0.00 0.00 37 1015.2
20260504081558 4 0 0.0 1.6 0.00 0.00 0.00 89 1016.2
20260504050104 6 0 0.0 1.6 0.00 0.00 0.00 81 1016.6
20260504044556 6 323 0.0 0.0 0.00 0.00 0.00 82 1016.6
20260504043100 6 0 0.0 1.6 0.00 0.00 0.00 80 1016.5
20260504041552 7 318 0.0 1.6 0.00 0.00 0.00 79 1016.4
20260504034630 7 0 0.0 1.6 0.00 0.00 0.00 77 1016.3
20260504033058 7 319 1.6 3.2 0.00 0.00 0.00 77 1016.4
20260504031557 7 108 0.0 1.6 0.00 0.00 0.00 75 1016.4
20260504030056 8 0 0.0 1.6 0.00 0.00 0.00 74 1016.6
20260504024557 8 0 0.0 1.6 0.00 0.00 0.00 72 1016.5
20260504023055 8 0 0.0 0.0 0.00 0.00 0.00 71 1016.6
20260504021557 9 0 0.0 1.6 0.00 0.00 0.00 70 1016.3
20260504020115 10 0 0.0 1.6 0.00 0.00 0.00 68 1016.2
20260504014600 10 0 0.0 1.6 0.00 0.00 0.00 65 1015.9
20260504013116 11 0 0.0 3.2 0.00 0.00 0.00 64 1015.6
20260504011556 11 307 0.0 3.2 0.00 0.00 0.00 63 1015.7
20260504010100 12 308 0.0 1.6 0.00 0.00 0.00 61 1015.4
20260504004558 13 297 0.0 3.2 0.00 0.00 0.00 56 1015.4
20260504003058 14 17 0.0 1.6 0.00 0.00 0.00 49 1015.3
20260504001600 15 0 0.0 1.6 0.00 0.00 0.00 44 1015.1
20260504000058 16 0 0.0 1.6 0.00 0.00 0.00 43 1015.1
20260503234555 17 0 0.0 1.6 0.00 0.00 0.00 37 1014.9
20260503233059 19 0 0.0 3.2 0.00 0.00 0.00 31 1014.9
20260503231555 19 0 3.2 9.7 0.00 0.00 0.00 31 1014.9
20260503230058 19 276 1.6 9.7 0.00 0.00 0.00 30 1014.9
20260503224606 19 230 3.2 11.3 0.00 0.00 0.00 28 1014.9
20260503223054 20 139 1.6 9.7 0.00 0.00 0.00 27 1015.0
20260503221603 20 198 1.6 16.1 0.00 0.00 0.00 29 1015.1
20260503220054 20 207 4.8 11.3 0.00 0.00 0.00 27 1015.1
20260503214553 20 228 4.8 12.9 0.00 0.00 0.00 29 1015.3
20260503213100 19 152 8.0 17.7 0.00 0.00 0.00 29 1015.4
20260503211556 19 266 9.7 19.3 0.00 0.00 0.00 27 1015.7
20260503210056 19 124 4.8 19.3 0.00 0.00 0.00 27 1015.7
20260503204616 19 115 6.4 11.3 0.00 0.00 0.00 28 1015.9
20260503203101 18 267 4.8 11.3 0.00 0.00 0.00 29 1016.1
20260503201555 18 283 4.8 12.9 0.00 0.00 0.00 29 1016.4
20260503200057 18 128 6.4 16.1 0.00 0.00 0.00 30 1016.5
20260503194557 18 223 4.8 14.5 0.00 0.00 0.00 29 1016.6